Location: ?ejeti?ky
(50.4060°N, 14.9016°E)
Time: 10:55:51
(UTC+00:00)

STARLINK-1282 - Pass Details

Date: 09 October 2020
Orbit: 549 x 550 km, 53.0° (Epoch: 21 October)

Event Time Altitude Azimuth Distance (km) Brightness Sun altitude
Exits shadow 02:04:44 26° 89° (E) 1,094 5.6 -29.9°
Drops below altitude 10° 02:06:48 10° 74° (ENE) 1,826 7.1 -29.7°
Sets 02:09:05 0° 69° (ENE) 2,722 8.4 -29.3°
